[[{"header":{"parameterUnit":"m.s-1","parameterCategory":1,"la1":30.2991,"la2":30.254,"lo1":-89.0895,"lo2":-89.0444,"dy":0.0017,"dx":0.0017,"nx":28,"ny":28,"refTime":"2023-07-18T21:00:00:Z","depth":0,"parameterNumber":2,"parameterNumberName":"U-component_of_WINDS"},"data":[0,0,0,0,0,0,0,0,0,0,0,0,0,0,0,0,0,0,0,0,0,0,0,0,0,0,0,0,0,0,0,0,0,0,0,0,0,0,0,0,0,0,0,0,0,0,0,0,0,0,0,0,0,0,0,0,0,0,0.0848,0.085,0,0.0962,0.0963,0.0964,0.1022,0.1022,0.1022,0.1022,0.1139,0.1142,0.1145,0,0,0,0,0,0,0,0,0,0,0,0,0,0.068,0.0683,0.0848,0.085,0.0851,0.0962,0.0963,0.0965,0.1022,0.1022,0.1022,0.1022,0.1138,0.1141,0.1145,0,0,0,0,0,0,0,0,0,0,0,0,0,0.0769,0.0684,0.0848,0.0893,0.0898,0.0961,0.0963,0.0965,0.1022,0.1022,0.1022,0.1022,0.1136,0.1141,0.1145,0.1173,0,0,0.1159,0.1161,0,0,0,0,0,0,0,0,0.0764,0.0776,0.0885,0.089,0.0896,0.0978,0.0947,0.1035,0.1022,0.0975,0.1022,0.1022,0.1085,0.1094,0.1115,0.1178,0.1183,0.116,0.1163,0.1165,0.1166,0,0,0,0,0,0,0,0.0758,0.0771,0.0893,0.0886,0.0893,0.0907,0.092,0.0964,0.1028,0.0979,0.0983,0.0996,0.1088,0.111,0.1118,0.1185,0.116,0.1164,0.1167,0.1168,0.1275,0.1275,0,0,0,0,0,0,0.0745,0.0765,0.089,0.0897,0.0829,0.091,0.0924,0.0951,0.1028,0.104,0.0996,0.0998,0.1103,0.1113,0.1123,0.1159,0.1165,0.1169,0.1172,0.1275,0.1275,0.1276,0,0,0,0,0,0,0.0741,0.0755,0.0885,0.0832,0.085,0.0913,0.0943,0.0954,0.0976,0.1041,0.1052,0.1007,0.1103,0.1116,0.116,0.1164,0.1171,0.1175,0.1275,0.1275,0.1275,0.1233,0,0,0,0,0,0,0.0736,0.0753,0.0765,0.0832,0.0852,0.092,0.0943,0.0956,0.0984,0.0988,0.1054,0.1065,0.1104,0.1152,0.1164,0.1171,0.1179,0.1275,0.1275,0.1275,0.1234,0.1232,0.1229,0,0,0,0,0,0.073,0.0748,0.0765,0.078,0.0868,0.092,0.0932,0.0976,0.0984,0.0996,0.1037,0.1063,0.1161,0.1156,0.117,0.1178,0.1275,0.1275,0.1275,0.1235,0.1232,0.1229,0,0,0,0,0,0,0.068,0.0758,0.0777,0.0819,0.0862,0.093,0.0946,0.0971,0.1014,0.1016,0.1069,0.1084,0.1122,0.1155,0.1147,0.1208,0.1221,0.1224,0.1186,0.1183,0.1181,0.1172,0.1183,0,0,0,0,0,0.0674,0.071,0.0776,0.0806,0.0827,0.0883,0.0907,0.0937,0.0985,0.1004,0.1048,0.1093,0.1135,0.1161,0.1202,0.1239,0.1254,0.1251,0.1248,0.1246,0.1248,0.1269,0.1269,0.1276,0.1276,0.1276,0,0,0.0662,0.0709,0.0729,0.0798,0.0835,0.0871,0.0898,0.0935,0.0962,0.101,0.1053,0.1087,0.1141,0.1181,0.1201,0.1209,0.1249,0.1246,0.1244,0.1248,0.127,0.1269,0.1268,0.1276,0.1276,0.1276,0,0,0.0658,0.0697,0.0727,0.0763,0.082,0.0856,0.0863,0.0927,0.0951,0.0995,0.1031,0.1064,0.1134,0.1171,0.1199,0.1207,0.1233,0.1219,0.1207,0.1227,0.1226,0.1226,0.1229,0.1229,0.1221,0.1221,0.1221,0,0.0636,0.0692,0.0738,0.0774,0.0802,0.0846,0.0876,0.0909,0.0976,0.0995,0.1003,0.1091,0.113,0.1179,0.1181,0.1202,0.1211,0.1212,0.1222,0.1223,0.1223,0.1226,0.1227,0.1219,0.1219,0.1219,0.1219,0,0.0662,0.07,0.0717,0.078,0.0811,0.0843,0.0893,0.0919,0.0946,0.0981,0.1026,0.1074,0.1126,0.114,0.1167,0.1192,0.1196,0.1212,0.1226,0.122,0.1224,0.1225,0.1216,0.1217,0.1217,0.1218,0,0,0.0631,0.0719,0.0724,0.0753,0.0818,0.0848,0.0881,0.0932,0.0952,0.0997,0.1026,0.1083,0.1099,0.113,0.1162,0.1179,0.1182,0.1194,0.1196,0.119,0.1213,0.12,0.1201,0.1199,0.12,0.12,0.1209,0,0.0637,0.07,0.0741,0.0787,0.0823,0.0864,0.0894,0.0936,0.097,0.1005,0.1042,0.1082,0.1099,0.1118,0.1137,0.1178,0.1188,0.1178,0.1227,0.1228,0.1213,0.1203,0.119,0.1196,0.121,0.1211,0.1211,0,0.0652,0.0694,0.0744,0.0804,0.082,0.0846,0.0895,0.0928,0.0976,0.1,0.1034,0.1066,0.1102,0.1112,0.1164,0.1156,0.1179,0.1201,0.1203,0.1209,0.1219,0.1209,0.1199,0.1199,0.1214,0.1214,0.1213,0,0.0624,0.0694,0.0732,0.0756,0.0827,0.0844,0.0874,0.0923,0.095,0.0993,0.1011,0.1057,0.1082,0.1117,0.116,0.1164,0.1207,0.1221,0.1227,0.1226,0.1235,0.1234,0.1228,0.1249,0.1249,0.1249,0.1249,0,0.0626,0.0655,0.0721,0.0745,0.0777,0.0825,0.0856,0.089,0.0933,0.0963,0.1002,0.103,0.1085,0.1119,0.1153,0.119,0.1202,0.1221,0.123,0.1218,0.1216,0.1234,0.1235,0.1249,0.1249,0.1249,0.1249,0,0.0601,0.0647,0.0691,0.0755,0.0771,0.0793,0.0847,0.0871,0.0906,0.0944,0.0956,0.1011,0.1054,0.11,0.1158,0.1181,0.1216,0.1229,0.12,0.1205,0.1208,0.1207,0.1214,0.1217,0.1235,0.1235,0.1235,0,0.06,0.0623,0.0688,0.0711,0.074,0.0777,0.0805,0.0852,0.088,0.0936,0.0953,0.0999,0.1037,0.1103,0.1149,0.1193,0.1207,0.1206,0.1214,0.1201,0.1207,0.1205,0.1207,0.1204,0.1203,0.1203,0.1203,0,0.0592,0.0613,0.0652,0.0698,0.0729,0.0768,0.0808,0.0825,0.088,0.0909,0.0952,0.0982,0.1041,0.1085,0.1135,0.1166,0.1194,0.12,0.1203,0.1192,0.1174,0.1183,0.1193,0.1199,0.12,0.12,0.12,0.12,0.0579,0.0601,0.065,0.0691,0.0726,0.0763,0.0788,0.0826,0.0864,0.0915,0.0941,0.0984,0.1031,0.1101,0.1131,0.1165,0.1174,0.118,0.1181,0.1182,0.1178,0.1168,0.1175,0.1175,0.1175,0.1175,0.1175,0,0.0573,0.0606,0.0644,0.0698,0.0731,0.0753,0.0798,0.0824,0.0861,0.0903,0.094,0.099,0.1033,0.1081,0.1127,0.1145,0.1158,0.1155,0.1155,0.1161,0.1168,0.116,0.1143,0.1143,0.1143,0.1143,0.1143,0.1143,0.0573,0.0612,0.0638,0.0694,0.0727,0.077,0.0794,0.0827,0.0861,0.0914,0.095,0.0981,0.1025,0.1074,0.1114,0.1128,0.1143,0.1136,0.1152,0.1158,0.1161,0.1163,0.1156,0.1139,0.1139,0.1143,0.1143,0.1143]},{"header":{"parameterUnit":"m.s-1","parameterCategory":1,"la1":30.2991,"la2":30.254,"lo1":-89.0895,"lo2":-89.0444,"dy":0.0017,"dx":0.0017,"nx":28,"ny":28,"refTime":"2023-07-18T21:00:00:Z","depth":0,"parameterNumber":3,"parameterNumberName":"V-component_of_WINDS"},"data":[0,0,0,0,0,0,0,0,0,0,0,0,0,0,0,0,0,0,0,0,0,0,0,0,0,0,0,0,0,0,0,0,0,0,0,0,0,0,0,0,0,0,0,0,0,0,0,0,0,0,0,0,0,0,0,0,0,0,4.2887,4.2887,0,4.2811,4.281,4.2809,4.2729,4.2727,4.2726,4.2725,4.2642,4.2641,4.264,0,0,0,0,0,0,0,0,0,0,0,0,0,4.2961,4.296,4.2887,4.2886,4.2885,4.2811,4.281,4.2809,4.2729,4.2727,4.2726,4.2725,4.2643,4.2641,4.264,0,0,0,0,0,0,0,0,0,0,0,0,0,4.2911,4.296,4.2888,4.2837,4.2831,4.2811,4.281,4.2808,4.2729,4.2727,4.2726,4.2724,4.2643,4.2641,4.264,4.2662,0,0,4.2634,4.2633,0,0,0,0,0,0,0,0,4.2914,4.2909,4.2845,4.284,4.2834,4.2778,4.2805,4.2759,4.2729,4.2768,4.2725,4.2723,4.2688,4.2683,4.2672,4.2658,4.2654,4.2634,4.2633,4.2632,4.2632,0,0,0,0,0,0,0,4.2918,4.2911,4.2857,4.2844,4.2838,4.2817,4.2808,4.2796,4.2738,4.2764,4.2758,4.2751,4.2685,4.2674,4.2669,4.2653,4.2634,4.2632,4.2631,4.2631,4.2654,4.2656,0,0,0,0,0,0,4.2929,4.2915,4.2859,4.2855,4.2871,4.2817,4.2807,4.2797,4.2738,4.2727,4.2752,4.2747,4.2678,4.2671,4.2666,4.2689,4.2632,4.263,4.2629,4.2652,4.2654,4.2656,0,0,0,0,0,0,4.2931,4.2925,4.2862,4.2883,4.2873,4.2817,4.2807,4.2797,4.2785,4.2729,4.2718,4.2752,4.2676,4.2668,4.2664,4.2685,4.263,4.2628,4.265,4.2653,4.2655,4.2734,0,0,0,0,0,0,4.2934,4.2926,4.2935,4.2884,4.2873,4.2863,4.2809,4.2796,4.2783,4.2776,4.2725,4.2715,4.2674,4.2667,4.2662,4.2681,4.2627,4.2648,4.2651,4.2654,4.2729,4.2739,4.2747,0,0,0,0,0,4.2937,4.2959,4.2936,4.293,4.2883,4.2864,4.2858,4.2811,4.2785,4.2793,4.2757,4.2717,4.2683,4.2667,4.2661,4.268,4.2647,4.2651,4.2654,4.2725,4.2737,4.2747,0,0,0,0,0,0,4.3012,4.2951,4.2925,4.2932,4.2904,4.2851,4.2859,4.2825,4.2803,4.2797,4.2738,4.2728,4.273,4.2704,4.2687,4.2698,4.2659,4.2662,4.2716,4.2726,4.2735,4.2741,4.2625,0,0,0,0,0,4.303,4.3022,4.2968,4.2979,4.2967,4.2916,4.2906,4.2873,4.2841,4.2828,4.2792,4.2761,4.2744,4.2733,4.2714,4.2725,4.2713,4.2735,4.2744,4.2752,4.2755,4.2759,4.2769,4.2669,4.2669,4.2669,0,0,4.3066,4.3032,4.303,4.2994,4.2968,4.296,4.2906,4.2899,4.2892,4.2827,4.2821,4.2793,4.2755,4.2759,4.2759,4.2737,4.278,4.2757,4.2763,4.2762,4.2764,4.2774,4.2782,4.2671,4.2671,4.267,0,0,4.3128,4.3101,4.3108,4.3084,4.3047,4.3013,4.3015,4.2967,4.2947,4.294,4.2891,4.2881,4.2852,4.2827,4.2811,4.2865,4.2828,4.286,4.2907,4.2912,4.292,4.2926,4.2946,4.2954,4.2863,4.2863,4.2864,0,4.3177,4.3164,4.3115,4.3112,4.3098,4.304,4.3046,4.3025,4.2983,4.2974,4.2951,4.2914,4.2884,4.2882,4.2896,4.2884,4.2884,4.2866,4.2923,4.2929,4.2935,4.2953,4.296,4.2868,4.2867,4.2867,4.2866,0,4.3226,4.3218,4.3228,4.3191,4.3177,4.3179,4.313,4.3122,4.309,4.3058,4.3052,4.3015,4.2988,4.2984,4.2952,4.2978,4.2966,4.2934,4.2893,4.2949,4.2965,4.2972,4.2874,4.2872,4.2871,4.287,0,0,4.3333,4.327,4.3275,4.3258,4.3213,4.3205,4.3204,4.3179,4.3173,4.3146,4.3144,4.3121,4.3092,4.3073,4.3038,4.3043,4.3088,4.301,4.3008,4.3026,4.3115,4.314,4.3148,4.3064,4.3065,4.3065,4.3118,0,4.3387,4.3383,4.334,4.3348,4.3339,4.3285,4.3284,4.3256,4.3226,4.3214,4.318,4.3166,4.3128,4.3116,4.3118,4.3083,4.3105,4.3078,4.306,4.306,4.3072,4.3157,4.3182,4.3234,4.3124,4.3125,4.3126,0,4.3449,4.3429,4.3437,4.3393,4.3388,4.3388,4.3362,4.3351,4.3318,4.3296,4.3277,4.3238,4.3232,4.3195,4.3186,4.3169,4.3158,4.314,4.3141,4.3137,4.3096,4.3156,4.3249,4.3257,4.3135,4.3134,4.3133,0,4.3528,4.3501,4.3503,4.349,4.3438,4.344,4.3418,4.3384,4.3372,4.3349,4.334,4.3316,4.3303,4.3285,4.324,4.3217,4.3237,4.3195,4.3219,4.322,4.3225,4.3226,4.3319,4.3218,4.3218,4.3218,4.3218,0,4.3593,4.36,4.3537,4.3538,4.3544,4.3494,4.3501,4.3474,4.3444,4.3438,4.3389,4.3384,4.3325,4.3313,4.3278,4.3277,4.3271,4.3252,4.3243,4.3257,4.326,4.325,4.3245,4.322,4.322,4.3219,4.3219,0,4.3681,4.3639,4.3637,4.359,4.3578,4.3585,4.3543,4.3542,4.351,4.3503,4.3498,4.3448,4.3431,4.3385,4.3356,4.3332,4.3341,4.3323,4.3353,4.3347,4.3373,4.3372,4.3464,4.3473,4.3367,4.3368,4.3369,0,4.3726,4.373,4.3684,4.3677,4.3658,4.3648,4.3636,4.3587,4.3576,4.354,4.3543,4.3523,4.3505,4.3481,4.3441,4.3419,4.34,4.3434,4.3396,4.3411,4.3401,4.3402,4.3402,4.3442,4.3443,4.3445,4.3445,0,4.381,4.3789,4.3775,4.3754,4.3742,4.3722,4.37,4.3697,4.3642,4.3632,4.3616,4.3602,4.3574,4.3555,4.3527,4.3503,4.3465,4.3458,4.3462,4.3477,4.3494,4.3486,4.3376,4.3456,4.3455,4.3454,4.3453,4.3453,4.3877,4.3879,4.3848,4.3834,4.3812,4.3793,4.3789,4.3758,4.3744,4.3718,4.369,4.3677,4.3644,4.3603,4.3582,4.357,4.355,4.3556,4.3558,4.356,4.3567,4.3496,4.3565,4.3564,4.3564,4.3564,4.3564,0,4.396,4.3937,4.3925,4.3896,4.3885,4.3852,4.3826,4.3818,4.3808,4.3782,4.3765,4.3747,4.3729,4.3688,4.3665,4.3664,4.3646,4.366,4.3659,4.3655,4.3586,4.3585,4.3675,4.3675,4.3675,4.3675,4.3675,4.3675,4.4001,4.4003,4.3979,4.3969,4.3946,4.3935,4.3923,4.3904,4.3883,4.3865,4.3851,4.3825,4.3792,4.3767,4.3748,4.3737,4.3731,4.375,4.3733,4.367,4.3659,4.3649,4.3648,4.3749,4.3749,4.3802,4.3803,4.3803]}]]